"Pseudo-MPEC" for A10Yj4g

Created 2023 Nov 22 11:22:03 UT using Find_Orb

Click here for an explanation of pseudo-MPECs

 
 Astrometry: 
     A10Yj4g* C2023 11 19KayDES5[dQj6\2_rHAstrometry=i+g;9n8bE!$rCOYvt%Pc::n^W68
     A10Yj4g  C2023 11 19QPpjH-k#N,BxXAS\:wfss:RIWlKPIU!9#?Hw(.9$,rF9.`6NYdhfW68
     A10Yj4g  C2023 11 19gyX+JcT%G\7!*4)8N.x.8bn(7'lYmZYe]CtcauyxQ^34P;vOo*AWW68
     A10Yj4g  C2023 11 19xIHZp('P;-ox*C;Es;DJS1^)[2ueS,WURM7Y#RArPKpFKi;o9nZQW68
     A10Yj4g  C2023 11 19w`205R=AJtvG35$?VwJ\Gp-6eVOYj0Pmt?y8`I27%4$:8DKiH-6nW68
     A10Yj4g  C2023 11 19L]$Un\x)!=(9#Q%n09sJ,quu?\27*8t.nj*p3q=;duFDi07ZC30?W68
     A10Yj4g 6C2023 11 20RF+CQC=_k-bu$.O4#n/#8R3OoHM\XFiredacted;$+2/NPot71ooZ84
     A10Yj4g 6C2023 11 20'Xy;[m$9+WL4t;,a+eFtOHCI9T/\v.Q2!VK`gQNGLDc2_ow,gL[iZ84
     A10Yj4g KC2023 11 20o*(Jk`yykeTG6nhgw5mASWfi)G2y+:#.`=a_.Ln0bx]9hQZA1;ChL90
     A10Yj4g KC2023 11 20'fr)xKhlNPRE7lS=`=3q*P%3kH!M4M0fRxXZOe%@W38qP%sFviPRL90
     A10Yj4g KC2023 11 20@/eeWA8EHe!!D[*caJ@tk$BKr.UK(e6mv1`BZb-[=+GH#LBQh3VdL90
     A10Yj4g 0B2023 11 21R']:6.B!xixdOtDl[%cAu1iS72*%y:j+u'E2iggA1e+`9O,O.pJ*M49
     A10Yj4g 0B2023 11 21[9]r%gQY\udW0CkQ13bP#DHclickcsV3C`heren6Cfpe)!mm2pWVM49
     A10Yj4g 0B2023 11 21;cAN%qG\;IFh%Ye@(V=H\@/]4Vp*hEQGN0Om4xmVWLBQ.RoWXQwAM49
     A10Yj4g 1C2023 11 21.15281 07 28 50.14 +00 42 12.6    ~BL7M 20.0 VXNEOCP033
     A10Yj4g 1C2023 11 21.15310 07 28 51.01 +00 42 12.1    ~BL7M 20.1 VXNEOCP033
     A10Yj4g 1C2023 11 21.15338 07 28 51.86 +00 42 12.2    ~BL7M 20.1 VXNEOCP033
     A10Yj4g HC2023 11 22i1w9o??;p@C[^LNL$A]5G%g01\gigd00PaIE'B:Qb72!c:'g5dW7204
     A10Yj4g KC2023 11 22CDGTZ4wGRaX\I[(*$v5@4AQIs,3PwWtDeT2cUJg!MI]W'forYmGmH21
     A10Yj4g KC2023 11 22oCyelrKYHHjBlVPXs+QCsRqv5(#nO$DGodmgexplanation5M5^qH21
     A10Yj4g KC2023 11 221*M;=FnDsFoo5QL]'+S%,Hi5Y'$qxiU^r_f$XfM(!%.9`9leFo/*H21

Station data:
(033) Karl Schwarzschild Observatory, Tautenburg  (N50.980137 E11.711240)
   Germany.  Observer B. Stecklum. 1.34-m f/3 Schmidt + CCD.
(204) Schiaparelli Observatory  (N45.867930 E8.770800)  Italy.  Observer L.
   Buzzi. 0.60-m f/4.64 Newtonian + CCD0.84-m f/3.5 reflector + CCD.
(H21) Astronomical Research Observatory, Westfield  (N39.483054 W87.968270)
   US/Illinois.  Observer R. Holmes. Measurers S. Foglia, L. Buzzi, T.
   Linder, R. Holmes. 0.76-m f/3.0 astrograph + CCD0.81-m f/4.0 astrograph +
   CCD0.61-m f/4.5 astrograph + CCD0.40-m f/5.32 astrograph + CCD.
(L90) ABObservatory, Rosarno  (N38.455733 E15.979490)  Italy.
(M49) IAS Remote Observatory, Hakos  (S23.236549 E16.361720)  Namibia.
   Observers D. Husar, M. Junius. Measurer D. Husar. 0.25-m f/4.6 reflector +
   CCD.
(W68) ATLAS Chile, Rio Hurtado  (S30.471010 W70.764980)  Chile.  Observers L.
   Denneau, R. Siverd, J. Tonry, H. Weiland. Measurers L. Denneau, N.
   Erasmus, A. Fitzsimmons, A. Lawrence, J. Robinson, R. Siverd, J. Tonry, H.
   Weiland. 0.5-m reflector + CCD.
(Z84) Calar Alto-Schmidt  (N37.224046 W2.548210)  Spain.  Observer R. Kresken.
    Measurers E. Schwab, D. Koschny, M. Micheli. 0.8-m f/3 Schmidt + CCD.

Orbital elements:  A10Yj4g
   Perihelion 2023 Nov 19.10721 +/- 0.000968 TT =  2:34:22 (JD 2460267.60721)
Epoch 2023 Nov 22.0 TT = JDT 2460270.5   Earth MOID: 0.0041      AutoNEOCP
M   0.66183112 +/- 0.0012           (J2000 ecliptic)
n   0.22878608 +/- 0.000518         Peri.  181.07852 +/- 0.0011
a   2.64758338 +/- 0.00399          Node   234.98320 +/- 0.00015
e   0.6250492 +/- 0.000565          Incl.    3.09618 +/- 0.0020
P   4.31                   H 27.86  G  0.15   U  7.7
q 0.99271343 +/- 3.42e-6    Q 4.30245333 +/- 0.00797
16 of 21 observations 2023 Nov. 19-22; mean residual 0".60
Residuals in arcseconds: 
231119 W68  1.7+  .03+    231120 Z84( 1.6+  1.8+)   231121 033  .01-  .00     
231119 W68  .27+  .16+    231120 L90(13.4+  .46+)   231121 033  .01+  .24-    
231119 W68  .63-  .07-    231120 L90(11.0+  3.1-)   231121 033  .18+  .11+    
231119 W68  .07-  .21+    231120 L90(12.3+  6.6-)   231122 204  1.0-  .48+    
231119 W68  2.1-  .34-    231121 M49  .73+  .19-    231122 H21  .60+  .28-    
231119 W68  .60+  .05+    231121 M49  .02-  .03-    231122 H21  .45+  .35-    
231120 Z84( 1.3+  2.7+)   231121 M49  .51-  .11+    231122 H21  .10+  .20+    

Ephemerides (geocentric):
Date (UTC) HH   RA             Dec           delta  r     elong  mag " sig PA
---- --------  ------------   ------------  ------ ------ -----  --- --------
2023 11 22 11  08 13 05.074   +00 37 21.83  .01531 0.9938 112.8 21.1 .334 168
2023 11 22 12  08 13 56.909   +00 37 02.10  .01550 0.9938 112.6 21.1 .337 168
2023 11 22 13  08 14 47.494   +00 36 42.86  .01569 0.9938 112.4 21.2 .340 169
2023 11 22 14  08 15 36.871   +00 36 24.09  .01588 0.9938 112.3 21.2 .342 170
2023 11 22 15  08 16 25.084   +00 36 05.78  .01607 0.9939 112.1 21.2 .345 170
2023 11 22 16  08 17 12.170   +00 35 47.91  .01626 0.9939 112.0 21.3 .347 171
2023 11 22 17  08 17 58.168   +00 35 30.47  .01645 0.9939 111.9 21.3 .350 172
2023 11 22 18  08 18 43.113   +00 35 13.45  .01664 0.9940 111.7 21.3 .352 172
2023 11 22 19  08 19 27.041   +00 34 56.83  .01683 0.9940 111.6 21.3 .355 173
2023 11 22 20  08 20 09.985   +00 34 40.61  .01701 0.9940 111.5 21.4 .357 173
2023 11 22 21  08 20 51.976   +00 34 24.76  .01720 0.9940 111.3 21.4 .359 174
2023 11 22 22  08 21 33.045   +00 34 09.29  .01739 0.9941 111.2 21.4 .362 175
2023 11 22 23  08 22 13.221   +00 33 54.17  .01759 0.9941 111.1 21.5 .364 175
2023 11 23 00  08 22 52.532   +00 33 39.40  .01778 0.9941 111.0 21.5 .366 176
2023 11 23 01  08 23 31.005   +00 33 24.97  .01797 0.9942 110.9 21.5 .368 177
2023 11 23 02  08 24 08.665   +00 33 10.86  .01816 0.9942 110.8 21.5 .371 177
2023 11 23 03  08 24 45.538   +00 32 57.07  .01835 0.9942 110.7 21.6 .373 178
2023 11 23 04  08 25 21.646   +00 32 43.60  .01854 0.9943 110.6 21.6 .375 179
2023 11 23 05  08 25 57.014   +00 32 30.42  .01873 0.9943 110.5 21.6 .377 179
2023 11 23 06  08 26 31.663   +00 32 17.53  .01892 0.9943 110.4 21.6 .379   0
2023 11 23 07  08 27 05.614   +00 32 04.93  .01911 0.9944 110.3 21.7 .382   0
2023 11 23 08  08 27 38.888   +00 31 52.61  .01930 0.9944 110.2 21.7 .384   1
2023 11 23 09  08 28 11.503   +00 31 40.55  .01949 0.9944 110.1 21.7 .386   2
2023 11 23 10  08 28 43.480   +00 31 28.76  .01969 0.9945 110.0 21.7 .388   2
2023 11 23 11  08 29 14.835   +00 31 17.22  .01988 0.9945 109.9 21.8 .390   3
2023 11 23 12  08 29 45.587   +00 31 05.93  .02007 0.9945 109.8 21.8 .393   3
2023 11 23 13  08 30 15.752   +00 30 54.88  .02026 0.9946 109.8 21.8 .395   4
2023 11 23 14  08 30 45.346   +00 30 44.06  .02045 0.9946 109.7 21.8 .397   5
2023 11 23 15  08 31 14.386   +00 30 33.48  .02064 0.9946 109.6 21.9 .399   5
2023 11 23 16  08 31 42.886   +00 30 23.11  .02084 0.9947 109.5 21.9 .401   6
2023 11 23 17  08 32 10.860   +00 30 12.97  .02103 0.9947 109.5 21.9 .403   6
2023 11 23 18  08 32 38.323   +00 30 03.04  .02122 0.9947 109.4 21.9 .406   7
2023 11 23 19  08 33 05.289   +00 29 53.31  .02141 0.9948 109.3 21.9 .408   7
2023 11 23 20  08 33 31.770   +00 29 43.79  .02161 0.9948 109.3 22.0 .410   8
2023 11 23 21  08 33 57.778   +00 29 34.46  .02180 0.9948 109.2 22.0 .412   9
2023 11 23 22  08 34 23.327   +00 29 25.32  .02199 0.9949 109.1 22.0 .414   9
2023 11 23 23  08 34 48.428   +00 29 16.37  .02218 0.9949 109.1 22.0 .416  10
2023 11 24 00  08 35 13.092   +00 29 07.61  .02238 0.9950 109.0 22.0 .419  10
2023 11 24 01  08 35 37.330   +00 28 59.02  .02257 0.9950 109.0 22.1 .421  11
2023 11 24 02  08 36 01.154   +00 28 50.61  .02276 0.9950 108.9 22.1 .423  11
2023 11 24 03  08 36 24.572   +00 28 42.36  .02295 0.9951 108.9 22.1 .425  12
2023 11 24 04  08 36 47.596   +00 28 34.29  .02315 0.9951 108.8 22.1 .427  12
2023 11 24 05  08 37 10.235   +00 28 26.37  .02334 0.9951 108.8 22.1 .430  13
2023 11 24 06  08 37 32.498   +00 28 18.62  .02353 0.9952 108.7 22.2 .432  13
2023 11 24 07  08 37 54.394   +00 28 11.02  .02372 0.9952 108.7 22.2 .434  14
2023 11 24 08  08 38 15.932   +00 28 03.57  .02392 0.9953 108.6 22.2 .436  14
2023 11 24 09  08 38 37.121   +00 27 56.27  .02411 0.9953 108.6 22.2 .439  15
2023 11 24 10  08 38 57.968   +00 27 49.11  .02430 0.9953 108.6 22.2 .441  15